KC0NAX Weather Reports


time (UTC)temp
F
wind
direction
speed
knots
gust
knots
rain 1hr
in
rain 24hr
in
rain mn
in
humidity
%
barometer
mb
20260510190349 72 74 2.6 5.2 0.00 0.00 0.00 37 1019.9
20260510185849 71 18 3.5 5.2 0.00 0.00 0.00 39 1019.9
20260510185348 72 279 3.5 5.2 0.00 0.00 0.00 40 1019.9
20260510184848 72 72 3.5 7.0 0.00 0.00 0.00 39 1020.0
20260510184348 72 229 1.7 2.6 0.00 0.00 0.00 39 1020.1
20260510183848 72 86 2.6 6.1 0.00 0.00 0.00 38 1020.0
20260510183348 72 230 2.6 4.3 0.00 0.00 0.00 38 1019.9
20260510182849 72 128 3.5 7.0 0.00 0.00 0.00 39 1019.8
20260510182348 72 58 2.6 6.1 0.00 0.00 0.00 39 1019.8
20260510181848 72 37 3.5 7.8 0.00 0.00 0.00 38 1019.7
20260510181349 72 281 1.7 4.3 0.00 0.00 0.00 40 1019.5
20260510180848 71 13 1.7 4.3 0.00 0.00 0.00 40 1019.7
20260510180348 71 123 1.7 2.6 0.00 0.00 0.00 39 1019.7
20260510175849 71 149 1.7 2.6 0.00 0.00 0.00 41 1019.7
20260510175349 70 69 3.5 4.3 0.00 0.00 0.00 40 1019.7
20260510174849 70 291 1.7 5.2 0.00 0.00 0.00 39 1019.5
20260510174348 70 122 6.1 8.7 0.00 0.00 0.00 38 1019.4
20260510173850 71 52 3.5 5.2 0.00 0.00 0.00 38 1019.4
20260510173348 70 88 1.7 3.5 0.00 0.00 0.00 40 1019.4
20260510172849 70 116 3.5 7.0 0.00 0.00 0.00 41 1019.4
20260510172348 70 82 2.6 5.2 0.00 0.00 0.00 39 1019.3
20260510171848 70 114 4.3 9.6 0.00 0.00 0.00 40 1019.2
20260510171351 70 127 2.6 4.3 0.00 0.00 0.00 42 1019.3
20260510170848 69 48 2.6 6.1 0.00 0.00 0.00 43 1019.3
20260510170349 69 76 3.5 6.1 0.00 0.00 0.00 42 1019.4
20260510165850 69 78 4.3 7.8 0.00 0.00 0.00 40 1019.3
20260510165349 69 83 3.5 7.0 0.00 0.00 0.00 40 1019.3
20260510164848 69 15 2.6 9.6 0.00 0.00 0.00 43 1019.3
20260510164349 68 107 2.6 7.8 0.00 0.00 0.00 41 1019.2
20260510163848 68 51 3.5 6.1 0.00 0.00 0.00 43 1019.2
20260510163348 67 94 1.7 4.3 0.00 0.00 0.00 43 1019.2
20260510162848 67 101 3.5 7.8 0.00 0.00 0.00 44 1019.2
20260510162348 67 92 5.2 8.7 0.00 0.00 0.00 45 1019.2
20260510161850 66 100 1.7 3.5 0.00 0.00 0.00 44 1019.2
20260510161348 66 59 4.3 6.1 0.00 0.00 0.00 45 1019.2
20260510160848 66 65 3.5 5.2 0.00 0.00 0.00 44 1019.1
20260510160348 66 43 5.2 9.6 0.00 0.00 0.00 46 1019.0
20260510155848 66 107 5.2 8.7 0.00 0.00 0.00 46 1019.1
20260510155350 66 27 3.5 7.8 0.00 0.00 0.00 47 1019.1
20260510154849 66 79 1.7 5.2 0.00 0.00 0.00 48 1019.0
20260510154348 65 66 2.6 7.8 0.00 0.00 0.00 49 1018.9
20260510153850 65 202 2.6 4.3 0.00 0.00 0.00 50 1018.9
20260510153348 65 60 2.6 3.5 0.00 0.00 0.00 51 1018.8
20260510152851 65 58 3.5 7.0 0.00 0.00 0.00 51 1018.8
20260510152348 65 108 4.3 7.0 0.00 0.00 0.00 52 1018.8
20260510151416 65 77 4.3 7.8 0.00 0.00 0.00 54 1018.9
20260510150849 64 355 2.6 5.2 0.00 0.00 0.00 53 1019.0
20260510150349 64 84 3.5 5.2 0.00 0.00 0.00 55 1019.1
20260510145848 65 93 2.6 4.3 0.00 0.00 0.00 55 1019.1
20260510145349 65 134 1.7 4.3 0.00 0.00 0.00 56 1019.1
20260510144850 65 65 3.5 7.0 0.00 0.00 0.00 55 1019.1
20260510144350 64 130 1.7 3.5 0.00 0.00 0.00 55 1019.1
20260510143849 64 59 4.3 6.1 0.00 0.00 0.00 55 1019.2
20260510143349 64 55 1.7 3.5 0.00 0.00 0.00 56 1019.1
20260510142849 64 136 1.7 4.3 0.00 0.00 0.00 57 1018.9
20260510142349 64 80 3.5 6.1 0.00 0.00 0.00 56 1018.8
20260510141853 64 59 4.3 6.1 0.00 0.00 0.00 57 1018.7
20260510141349 64 44 4.3 7.8 0.00 0.00 0.00 57 1018.7
20260510140848 64 36 3.5 7.0 0.00 0.00 0.00 58 1018.6
20260510140351 63 80 3.5 7.8 0.00 0.00 0.00 60 1018.5
20260510135848 63 65 2.6 3.5 0.00 0.00 0.00 59 1018.4
20260510135348 63 53 2.6 5.2 0.00 0.00 0.00 61 1018.2
20260510134849 63 82 3.5 7.0 0.00 0.00 0.00 60 1018.1
20260510134348 63 91 1.7 3.5 0.00 0.00 0.00 63 1017.9
20260510133849 63 39 1.7 5.2 0.00 0.00 0.00 64 1017.9
20260510133349 63 80 5.2 9.6 0.00 0.00 0.00 65 1017.9
20260510132848 64 83 5.2 7.0 0.00 0.00 0.00 65 1017.8
20260510132350 63 87 1.7 5.2 0.00 0.00 0.00 68 1017.8
20260510131848 63 95 1.7 3.5 0.00 0.00 0.00 70 1017.9
20260510131348 62 31 2.6 7.0 0.00 0.00 0.00 70 1018.0
20260510130848 62 51 1.7 2.6 0.00 0.00 0.00 71 1017.9
20260510130348 62 51 3.5 7.8 0.00 0.00 0.00 72 1017.7
20260510125850 62 52 3.5 7.0 0.00 0.00 0.00 73 1017.6
20260510125348 62 58 1.7 2.6 0.00 0.00 0.00 74 1017.5
20260510124848 62 58 3.5 6.1 0.00 0.00 0.00 74 1017.4
20260510124349 61 77 5.2 7.8 0.00 0.00 0.00 74 1017.3
20260510123850 61 73 5.2 9.6 0.00 0.00 0.00 74 1017.0
20260510123348 60 82 5.2 7.0 0.00 0.00 0.00 75 1016.8
20260510122851 60 70 2.6 5.2 0.00 0.00 0.00 77 1016.8
20260510122348 60 348 1.7 2.6 0.00 0.00 0.00 77 1016.7
20260510121850 60 97 3.5 6.1 0.00 0.00 0.00 77 1016.5
20260510121349 60 80 1.7 5.2 0.00 0.00 0.00 78 1016.5
20260510120850 59 55 2.6 3.5 0.00 0.00 0.00 79 1016.4
20260510120348 59 43 3.5 7.0 0.00 0.00 0.00 79 1016.2
20260510115851 59 34 3.5 7.8 0.00 0.00 0.00 80 1016.3
20260510115348 59 85 1.7 3.5 0.00 0.00 0.00 81 1016.3
20260510114849 59 69 2.6 6.1 0.00 0.00 0.00 81 1016.2
20260510114349 59 55 3.5 7.0 0.00 0.00 0.00 82 1016.2
20260510113848 59 73 1.7 4.3 0.00 0.00 0.00 82 1016.0
20260510113348 59 65 2.6 4.3 0.00 0.00 0.00 82 1015.9
20260510112848 59 70 2.6 4.3 0.00 0.00 0.00 82 1015.8
20260510112349 59 70 2.6 5.2 0.00 0.00 0.00 81 1015.8
20260510111848 59 68 2.6 6.1 0.00 0.00 0.00 81 1015.8
20260510111348 59 51 1.7 3.5 0.00 0.00 0.00 81 1015.7
20260510110848 59 71 2.6 4.3 0.00 0.00 0.00 81 1015.7
20260510110348 59 61 2.6 3.5 0.00 0.00 0.00 82 1015.8
20260510105848 59 46 1.7 2.6 0.00 0.00 0.00 81 1015.7
20260510105348 59 7 0.9 1.7 0.00 0.00 0.00 82 1015.6
20260510104848 59 70 2.6 3.5 0.00 0.00 0.00 82 1015.5
20260510104348 59 51 1.7 3.5 0.00 0.00 0.00 81 1015.3
20260510103848 59 61 0.9 1.7 0.00 0.00 0.00 81 1015.4
20260510103348 59 66 1.7 3.5 0.00 0.00 0.00 81 1015.4
20260510102848 59 58 2.6 4.3 0.00 0.00 0.00 81 1015.5
20260510102348 59 48 0.9 1.7 0.00 0.00 0.00 81 1015.6
20260510101848 58 65 0.9 1.7 0.00 0.00 0.00 82 1015.5
20260510101348 57 42 0.9 1.7 0.00 0.00 0.00 84 1015.4
20260510100850 56 51 1.7 2.6 0.00 0.00 0.00 89 1015.3
20260510100348 55 69 1.7 2.6 0.00 0.00 0.00 91 1015.1
20260510095848 54 70 0.9 2.6 0.00 0.00 0.00 93 1015.1
20260510095348 54 0 0.9 1.7 0.00 0.00 0.00 93 1015.0
20260510094850 54 81 0.0 0.9 0.00 0.00 0.00 92 1014.9
20260510094348 55 0 0.0 0.0 0.00 0.00 0.00 92 1014.8
20260510093848 55 171 0.0 0.9 0.00 0.00 0.00 92 1014.6
20260510093348 55 121 0.0 0.9 0.00 0.00 0.00 92 1014.5
20260510092848 55 31 0.9 0.9 0.00 0.00 0.00 92 1014.3
20260510092348 55 51 0.9 1.7 0.00 0.00 0.00 91 1014.3
20260510091848 55 11 0.9 0.9 0.00 0.00 0.00 91 1014.3
20260510091349 55 85 0.9 1.7 0.00 0.00 0.00 91 1014.3
20260510090848 55 59 0.9 1.7 0.00 0.00 0.00 92 1014.4
20260510090348 55 73 1.7 1.7 0.00 0.00 0.00 92 1014.3
20260510085848 55 43 1.7 1.7 0.00 0.00 0.00 92 1014.5
20260510085348 55 72 0.0 1.7 0.00 0.00 0.00 92 1014.5
20260510084851 55 25 0.0 0.9 0.00 0.00 0.00 92 1014.4
20260510084349 55 342 0.9 0.9 0.00 0.00 0.00 91 1014.2
20260510083851 55 86 0.9 0.9 0.00 0.00 0.00 91 1014.0
20260510083348 55 59 0.9 1.7 0.00 0.00 0.00 91 1013.9
20260510082848 56 69 0.9 1.7 0.00 0.00 0.00 91 1013.9
20260510082348 56 64 0.9 1.7 0.00 0.00 0.00 90 1013.8
20260510081850 56 53 0.0 0.9 0.00 0.00 0.00 90 1013.8
20260510081348 56 48 0.9 1.7 0.00 0.00 0.00 90 1013.9
20260510080848 56 32 0.0 0.9 0.00 0.00 0.00 90 1013.9
20260510080349 56 62 0.9 1.7 0.00 0.00 0.00 90 1013.9
20260510075848 56 65 1.7 2.6 0.00 0.00 0.00 90 1014.1
20260510075349 56 58 0.9 1.7 0.00 0.00 0.00 90 1014.2
20260510074848 56 62 1.7 1.7 0.00 0.00 0.00 90 1014.2
20260510074348 55 85 0.0 0.9 0.00 0.00 0.00 90 1014.2
20260510073848 56 62 0.0 0.9 0.00 0.00 0.00 90 1014.2
20260510073348 56 18 0.0 0.9 0.00 0.00 0.00 89 1014.0
20260510072848 56 61 0.0 0.9 0.00 0.00 0.00 89 1013.9
20260510072348 56 56 0.9 1.7 0.00 0.00 0.00 88 1013.9
20260510071848 55 54 1.7 1.7 0.00 0.00 0.00 88 1013.8
20260510071348 55 56 1.7 1.7 0.00 0.00 0.00 89 1013.9
20260510070852 55 73 0.9 1.7 0.00 0.00 0.00 89 1014.0
20260510070348 55 32 0.9 1.7 0.00 0.00 0.00 88 1014.0
20260510065848 56 61 0.9 1.7 0.00 0.00 0.00 88 1014.1
20260510065348 56 65 0.0 1.7 0.00 0.00 0.00 87 1014.0
20260510064848 56 51 0.9 1.7 0.00 0.00 0.00 87 1013.9
20260510064348 56 60 1.7 1.7 0.00 0.00 0.00 87 1013.9
20260510063848 56 45 1.7 1.7 0.00 0.00 0.00 87 1013.9
20260510063348 56 67 1.7 1.7 0.00 0.00 0.00 87 1013.9
20260510062848 56 64 0.9 1.7 0.00 0.00 0.00 86 1013.9
20260510062348 57 66 0.9 1.7 0.00 0.00 0.00 86 1013.9
20260510061849 57 54 1.7 1.7 0.00 0.00 0.00 85 1013.8
20260510061348 58 66 0.0 1.7 0.00 0.00 0.00 84 1013.7
20260510060848 59 38 0.9 3.5 0.00 0.00 0.00 81 1013.7
20260510060349 59 55 2.6 4.3 0.00 0.00 0.00 81 1013.7
20260510055848 59 48 2.6 3.5 0.00 0.00 0.00 79 1013.8
20260510055348 59 44 2.6 3.5 0.00 0.00 0.00 83 1014.0
20260510054848 59 55 3.5 3.5 0.00 0.00 0.00 83 1014.0
20260510054348 59 49 1.7 2.6 0.00 0.00 0.00 82 1013.9
20260510053849 60 57 2.6 3.5 0.00 0.00 0.00 81 1013.8
20260510053348 60 55 2.6 3.5 0.00 0.00 0.00 79 1013.9
20260510052848 61 56 1.7 2.6 0.00 0.00 0.00 77 1013.9
20260510052348 61 39 0.9 1.7 0.00 0.00 0.00 74 1013.9
20260510051849 61 60 2.6 3.5 0.00 0.00 0.00 73 1014.0
20260510051348 61 60 3.5 3.5 0.00 0.00 0.00 74 1014.0
20260510050848 60 47 1.7 3.5 0.00 0.00 0.00 72 1014.0
20260510050349 58 12 1.7 2.6 0.00 0.00 0.00 77 1013.9
20260510045848 58 29 3.5 3.5 0.00 0.00 0.00 83 1013.4
20260510045348 58 34 1.7 3.5 0.00 0.00 0.00 83 1013.3
20260510044848 57 37 1.7 1.7 0.00 0.00 0.00 84 1013.3
20260510044348 58 59 1.7 2.6 0.00 0.00 0.00 85 1013.2
20260510043849 58 57 0.9 2.6 0.00 0.00 0.00 85 1013.1
20260510043348 58 58 1.7 3.5 0.00 0.00 0.00 85 1013.0
20260510042849 58 50 1.7 2.6 0.00 0.00 0.00 85 1012.9
20260510042349 58 61 0.9 1.7 0.00 0.00 0.00 84 1013.0
20260510041848 58 58 1.7 3.5 0.00 0.00 0.00 86 1012.9
20260510041351 58 51 1.7 3.5 0.00 0.00 0.00 86 1012.9
20260510040850 58 59 1.7 2.6 0.00 0.00 0.00 85 1012.9
20260510040348 58 63 0.0 1.7 0.00 0.00 0.00 85 1012.7
20260510035849 57 49 0.9 1.7 0.00 0.00 0.00 85 1012.6
20260510035348 57 65 0.0 1.7 0.00 0.00 0.00 85 1012.6
20260510034849 57 52 0.9 1.7 0.00 0.00 0.00 84 1012.6
20260510034348 57 49 1.7 2.6 0.00 0.00 0.00 84 1012.6
20260510033406 57 72 0.0 0.9 0.00 0.00 0.00 85 1012.7
20260510032849 57 40 0.9 0.9 0.00 0.00 0.00 83 1012.7
20260510032349 58 70 1.7 3.5 0.00 0.00 0.00 83 1012.7
20260510031849 58 72 0.9 2.6 0.00 0.00 0.00 85 1012.6
20260510031348 58 60 1.7 2.6 0.00 0.00 0.00 84 1012.6
20260510030848 58 62 0.9 2.6 0.00 0.00 0.00 82 1012.6
20260510030349 59 63 1.7 2.6 0.00 0.00 0.00 82 1012.5
20260510025849 59 53 0.9 2.6 0.00 0.00 0.00 81 1012.5
20260510025348 59 45 1.7 3.5 0.00 0.00 0.00 80 1012.5
20260510024848 59 64 1.7 3.5 0.00 0.00 0.00 81 1012.4
20260510024348 59 41 1.7 1.7 0.00 0.00 0.00 78 1012.3
20260510023848 59 57 1.7 2.6 0.00 0.00 0.00 80 1012.1
20260510023348 60 61 1.7 3.5 0.00 0.00 0.00 78 1012.0
20260510022850 60 61 1.7 3.5 0.00 0.00 0.00 80 1011.9
20260510022348 60 55 1.7 2.6 0.00 0.00 0.00 80 1011.8
20260510021851 61 58 1.7 2.6 0.00 0.00 0.00 79 1011.7
20260510021348 61 58 0.9 1.7 0.00 0.00 0.00 78 1011.5
20260510020848 61 57 1.7 2.6 0.00 0.00 0.00 77 1011.4
20260510020349 62 58 1.7 3.5 0.00 0.00 0.00 77 1011.3
20260510015849 62 56 1.7 2.6 0.00 0.00 0.00 76 1011.3
20260510015348 63 58 1.7 2.6 0.00 0.00 0.00 73 1011.2
20260510014848 63 53 0.9 1.7 0.00 0.00 0.00 73 1011.1
20260510014348 64 46 0.9 1.7 0.00 0.00 0.00 69 1011.0
20260510013848 64 66 0.9 1.7 0.00 0.00 0.00 71 1010.9
20260510013349 65 30 0.9 1.7 0.00 0.00 0.00 67 1010.9
20260510012848 65 42 0.9 1.7 0.00 0.00 0.00 66 1010.8
20260510012348 66 3 0.9 1.7 0.00 0.00 0.00 67 1010.8
20260510011849 67 89 0.9 1.7 0.00 0.00 0.00 69 1010.8
20260510011348 67 98 0.9 0.9 0.00 0.00 0.00 64 1010.7
20260510010849 68 58 0.9 1.7 0.00 0.00 0.00 63 1010.7
20260510010349 69 38 1.7 1.7 0.00 0.00 0.00 61 1010.5
20260510005848 70 48 0.9 1.7 0.00 0.00 0.00 62 1010.5
20260510005348 71 43 0.9 1.7 0.00 0.00 0.00 59 1010.4
20260510004848 71 31 0.9 1.7 0.00 0.00 0.00 60 1010.4
20260510004348 72 37 0.9 1.7 0.00 0.00 0.00 60 1010.3
20260510003848 73 20 0.9 1.7 0.00 0.00 0.00 58 1010.2
20260510003348 74 21 1.7 1.7 0.00 0.00 0.00 52 1010.2
20260510002848 76 36 0.9 1.7 0.00 0.00 0.00 47 1010.2
20260510002348 77 34 0.9 1.7 0.00 0.00 0.00 48 1010.3
20260510001848 79 25 0.9 0.9 0.00 0.00 0.00 48 1010.3
20260510001349 80 320 0.9 1.7 0.00 0.00 0.00 43 1010.3
20260510000848 80 244 0.0 0.9 0.00 0.00 0.00 41 1010.3
20260510000349 80 303 0.9 1.7 0.00 0.00 0.00 44 1010.3
20260509235850 80 326 0.9 0.9 0.00 0.00 0.00 47 1010.3
20260509235348 80 315 0.9 1.7 0.00 0.00 0.00 43 1010.3
20260509234848 80 309 0.9 0.9 0.00 0.00 0.00 41 1010.3
20260509234348 81 284 0.9 1.7 0.00 0.00 0.00 39 1010.3
20260509233848 81 281 1.7 2.6 0.00 0.00 0.00 37 1010.2
20260509233348 81 261 1.7 1.7 0.00 0.00 0.00 36 1010.2
20260509232848 82 270 2.6 3.5 0.00 0.00 0.00 35 1010.2
20260509232350 82 217 1.7 1.7 0.00 0.00 0.00 35 1010.2
20260509231848 82 229 0.9 1.7 0.00 0.00 0.00 33 1010.2
20260509231348 82 211 1.7 2.6 0.00 0.00 0.00 33 1010.2
20260509230848 81 239 1.7 2.6 0.00 0.00 0.00 35 1010.2
20260509230348 81 234 0.9 1.7 0.00 0.00 0.00 34 1010.2
20260509225849 80 299 1.7 2.6 0.00 0.00 0.00 33 1010.2
20260509225348 81 320 0.9 1.7 0.00 0.00 0.00 36 1010.2
20260509224849 81 284 1.7 2.6 0.00 0.00 0.00 34 1010.2
20260509224350 82 308 2.6 4.3 0.00 0.00 0.00 28 1010.2
20260509223849 83 303 2.6 2.6 0.00 0.00 0.00 29 1010.2
20260509223348 82 303 2.6 3.5 0.00 0.00 0.00 29 1010.2
20260509222850 82 304 2.6 3.5 0.00 0.00 0.00 32 1010.3
20260509222348 82 298 2.6 4.3 0.00 0.00 0.00 31 1010.3
20260509221848 82 280 3.5 8.7 0.00 0.00 0.00 32 1010.3
20260509221348 82 277 4.3 6.1 0.00 0.00 0.00 31 1010.3
20260509220849 82 305 3.5 5.2 0.00 0.00 0.00 33 1010.3
20260509220349 83 301 2.6 4.3 0.00 0.00 0.00 30 1010.2
20260509215849 83 288 2.6 4.3 0.00 0.00 0.00 30 1010.2
20260509215349 82 271 1.7 2.6 0.00 0.00 0.00 31 1010.2
20260509214848 82 301 2.6 3.5 0.00 0.00 0.00 30 1010.2
20260509214351 82 298 1.7 3.5 0.00 0.00 0.00 31 1010.2
20260509213848 82 300 2.6 4.3 0.00 0.00 0.00 34 1010.2
20260509213348 82 267 3.5 4.3 0.00 0.00 0.00 31 1010.2
20260509212848 82 277 3.5 5.2 0.00 0.00 0.00 34 1010.2
20260509212349 82 305 0.0 1.7 0.00 0.00 0.00 32 1010.3
20260509211848 82 273 1.7 3.5 0.00 0.00 0.00 32 1010.3
20260509211348 82 297 1.7 2.6 0.00 0.00 0.00 35 1010.3
20260509210849 82 312 3.5 4.3 0.00 0.00 0.00 30 1010.4
20260509210348 82 300 3.5 7.0 0.00 0.00 0.00 33 1010.5
20260509205851 82 286 3.5 6.1 0.00 0.00 0.00 35 1010.5
20260509205348 82 294 2.6 3.5 0.00 0.00 0.00 31 1010.5
20260509204851 82 304 4.3 7.8 0.00 0.00 0.00 32 1010.5
20260509204349 82 261 0.9 1.7 0.00 0.00 0.00 30 1010.5
20260509203849 82 216 3.5 3.5 0.00 0.00 0.00 31 1010.5
20260509203348 82 255 3.5 5.2 0.00 0.00 0.00 34 1010.7
20260509202850 82 264 4.3 5.2 0.00 0.00 0.00 31 1010.7
20260509202348 82 292 4.3 7.8 0.00 0.00 0.00 34 1010.8
20260509201848 82 304 1.7 3.5 0.00 0.00 0.00 30 1010.8
20260509201348 82 272 2.6 5.2 0.00 0.00 0.00 33 1010.9
20260509200849 82 286 3.5 6.1 0.00 0.00 0.00 33 1010.9
20260509200349 81 297 1.7 2.6 0.00 0.00 0.00 30 1011.0
20260509195850 82 294 4.3 5.2 0.00 0.00 0.00 35 1011.1
20260509195350 82 288 3.5 5.2 0.00 0.00 0.00 36 1011.2
20260509194848 81 212 2.6 5.2 0.00 0.00 0.00 34 1011.2
20260509194350 81 202 3.5 4.3 0.00 0.00 0.00 33 1011.2
20260509193850 81 289 1.7 3.5 0.00 0.00 0.00 34 1011.2
20260509193348 81 288 3.5 5.2 0.00 0.00 0.00 35 1011.2
20260509192848 81 269 3.5 6.1 0.00 0.00 0.00 33 1011.2
20260509192348 81 259 3.5 6.1 0.00 0.00 0.00 34 1011.3
20260509191848 81 267 3.5 4.3 0.00 0.00 0.00 36 1011.2
20260509191348 81 204 3.5 5.2 0.00 0.00 0.00 34 1011.2
20260509190848 80 258 3.5 7.8 0.00 0.00 0.00 35 1011.3